Content
SEND FEEDBACK

Daily
Averages
Monthly
Summary
United States of America

ST. LOUIS, MISSOURI


Home > North America > United States > Missouri
Elevation: 163 meters     Latitude: 38 45N     Longitude: 090 22W

WEATHER
 
SELECT A DAY
Number of Records: 200,489;   Date Range: 1/1/95 - 11/22/14
 
SHARE

PRINT THIS DATA

[ ← Previous Day ]
WEATHER ALMANAC - 7 AUGUST, 2014
[ Next Day → ]
[ °F ]   °C
Weather ElementAverageHighLow
Temperature22.6 °C24 °C (9:20 am)21.7 °C (7:54 pm)
Dewpoint21.3 °C22.2 °C (6:54 pm)20 °C (12:30 am)
Humidity91.8 %96 % (12:54 am)87 % (7:54 am)
Barometer1012.2 hPa1014.9 hPa (7:01 pm)1009.8 hPa (6:54 pm)
Wind Speed7.2 km/h20.4 km/h (7:01 pm)
Wind Gust31.5 km/h (6:54 am)
Weather ElementAverage
Visibility9.5 km
Wind DirectionE (86.5 °)

Weather ElementTotal
Precipitation89.15 mm
Cooling Degree Days4.6 (Base 18.3)
Growing Degree Days12.9 (Base 10)
Averaged from 49 records on 7 August, 2014
WEATHER CONDITIONS BREAKOUT
WIND DIRECTION BREAKOUT
WEATHER BY HOUR - 7 AUGUST, 2014
[ °F ]   °C
Local TimeTemperatureDewpointHumidityBarometerVisibilityWind DirectionWind SpeedGust SpeedPrecipitationEventsConditions
12:54 AM22.2 °C20.6 °C91 %1014.6 hPa16.1 kmEast (80°)5.6 km/hOvercast
1:54 AM22.2 °C20 °C87 %1013.9 hPa16.1 kmEast (80°)9.3 km/hMostly Cloudy
2:54 AM21.7 °C20 °C90 %1013.5 hPa16.1 kmEast (80°)11.1 km/hOvercast
3:54 AM21.7 °C20 °C90 %1013.2 hPa16.1 kmEast (90°)9.3 km/hMostly Cloudy
4:54 AM21.7 °C20 °C90 %1012.9 hPa16.1 kmEast (100°)9.3 km/hScattered Clouds
5:54 AM22.2 °C20 °C87 %1012.9 hPa9.7 kmEast (100°)16.7 km/hMostly Cloudy
6:54 AM22.2 °C20 °C87 %1013.2 hPa16.1 kmESE (120°)18.5 km/h31.5 km/hThunderstormThunderstorm
7:40 AM22 °C21 °C94 %1014.9 hPa2.9 kmSouth (190°)13 km/h31.5 km/h5.84 mmRain-ThunderstormHeavy Thunderstorms and Rain
7:51 AM22 °C21 °C94 %1014.9 hPa3.2 kmESE (120°)5.6 km/h8.38 mmRain-ThunderstormHeavy Thunderstorms and Rain
7:52 AM21.7 °C20.6 °C93 %1014.6 hPa3.2 kmCalm8.38 mmRain-ThunderstormHeavy Thunderstorms and Rain
8:01 AM22 °C21 °C94 %1014.9 hPa3.2 kmCalm1.52 mmRain-ThunderstormHeavy Thunderstorms and Rain
8:09 AM22 °C21 °C94 %1014.9 hPa3.2 kmSE (140°)5.6 km/h2.03 mmRain-ThunderstormThunderstorms and Rain
8:33 AM22 °C21 °C94 %1014.9 hPa6.4 kmEast (90°)7.4 km/h3.81 mmRainLight Rain
8:54 AM21.7 °C21.1 °C96 %1014.2 hPa6.4 kmESE (120°)9.3 km/h4.32 mmRainLight Rain
9:54 AM22.2 °C21.1 °C93 %1013.9 hPa8 kmSE (130°)7.4 km/h1.02 mmRainLight Rain
10:24 AM22 °C21 °C94 %1013.9 hPa8 kmEast (90°)11.1 km/h2.03 mmRainLight Rain
10:54 AM22.2 °C21.1 °C93 %1013.2 hPa6.4 kmESE (110°)13 km/h25.9 km/h2.54 mmRainLight Rain
11:37 AM22 °C21 °C94 %1013.9 hPa4 kmSSE (150°)13 km/h2.54 mmRainRain
11:45 AM22 °C21 °C94 %1013.5 hPa1.9 kmESE (120°)11.1 km/h4.32 mmRainRain
11:51 AM22 °C21 °C94 %1013.5 hPa6.4 kmSE (140°)11.1 km/h4.32 mmRainLight Rain
11:54 AM22.2 °C21.1 °C93 %1012.9 hPa6.4 kmSE (140°)7.4 km/h4.32 mmRainLight Rain
12:19 PM23 °C21 °C88 %1013.2 hPa6.4 kmSE (130°)11.1 km/h0.76 mmRainLight Rain
12:54 PM23.3 °C21.7 °C91 %1012.2 hPa11.3 kmSE (140°)13 km/h0.76 mmOvercast
1:11 PM23 °C22 °C94 %1012.9 hPa11.3 kmSE (140°)20.4 km/h29.6 km/h0 mmRainLight Rain
1:47 PM23 °C22 °C94 %1012.5 hPa2.9 kmSSE (150°)16.7 km/h27.8 km/h1.78 mmRainHeavy Rain
1:54 PM22.8 °C21.1 °C90 %1011.9 hPa2.4 kmSE (130°)11.1 km/h25.9 km/h3.56 mmRainHeavy Rain
2:54 PM22.8 °C21.1 °C90 %1011.2 hPa8 kmSW (230°)7.4 km/h8.64 mmOvercast
3:35 PM23 °C21 °C88 %1011.5 hPa2.4 kmSSE (150°)13 km/h1.02 mmRainRain
3:54 PM22.2 °C21.1 °C93 %1010.8 hPa2.4 kmESE (120°)9.3 km/h3.05 mmRainHeavy Rain
4:44 PM22 °C21 °C94 %1011.2 hPa0.8 kmCalm6.6 mmFog-RainHeavy Rain
4:54 PM22.2 °C21.1 °C93 %1010.5 hPa2.9 kmCalm7.11 mmRainLight Rain
4:58 PM22 °C21 °C94 %1011.2 hPa3.2 kmWNW (290°)5.6 km/h0 mmRainLight Rain
5:04 PM22 °C21 °C94 %1011.2 hPa6.4 kmCalm0 mmRainLight Rain
5:13 PM22 °C21 °C94 %1011.2 hPa8 kmCalm0 mmRainLight Rain
5:54 PM23.9 °C21.7 °C87 %1010.2 hPa8 kmCalm0 mmOvercast
5:57 PM24 °C22 °C89 %1010.8 hPa16.1 kmCalmOvercast
6:10 PM24 °C22 °C89 %1010.8 hPa16.1 kmCalmOvercast
6:17 PM24 °C22 °C89 %1010.8 hPa16.1 kmCalmOvercast
6:30 PM24 °C22 °C89 %1010.8 hPa16.1 kmCalmOvercast
6:38 PM24 °C22 °C89 %1010.5 hPa16.1 kmCalmOvercast
6:49 PM24 °C22 °C89 %1010.5 hPa16.1 kmCalmMostly Cloudy
6:54 PM23.9 °C22.2 °C90 %1009.8 hPa16.1 kmCalmMostly Cloudy
7:54 PM23.9 °C22.2 °C90 %1009.8 hPa16.1 kmCalmMostly Cloudy
8:54 PM23.3 °C22.2 °C93 %1010.2 hPa16.1 kmSSE (150°)7.4 km/hOvercast
9:54 PM23.3 °C22.2 °C93 %1010.8 hPa14.5 kmCalm0.25 mmRainLight Rain
10:54 PM22.8 °C22.2 °C96 %1010.5 hPa14.5 kmSSE (150°)9.3 km/h0.25 mmOvercast
11:18 PM23 °C22 °C94 %1011.2 hPa12.9 kmSE (140°)11.1 km/hOvercast
11:30 PM23 °C22 °C94 %1011.5 hPa12.9 kmSE (130°)13 km/hOvercast
11:54 PM22.8 °C21.7 °C93 %1010.8 hPa12.9 kmVariable9.3 km/hOvercast
Hourly data recorded from KSUS, located 0 kilometers away from St. Louis, Missouri







STORIES FROM OUR PARTNERS